New Smyrna Beach, FL

8:15 AM EST on November 17, 2019 (GMT -0500)
New Smyrna Beach Municipal

Weather History for KEVB - July, 2019

Change the Weather History Date:

Wednesday, July 24, 2019

  Actual Average (WUND) Record (WUND)
Temperature  
Mean Temperature 82 °F -  
Max Temperature 89 °F - - (-1)
Min Temperature 75 °F - - (-1)
Cooling Degree Days 17    
Growing Degree Days 32 (Base 50)    
Moisture  
Dew Point 73 °F    
Average Humidity 82    
Maximum Humidity 94    
Minimum Humidity 59    
Precipitation  
Precipitation 0.00 in - - ()
Sea Level Pressure  
Sea Level Pressure 29.96 in    
Wind  
Wind Speed 9 mph (WSW)    
Max Wind Speed 28 mph    
Max Gust Speed 26 mph    
Visibility 8 miles    
Events Rain , Thunderstorm    
Averages and records for this station are not official NWS values.
T = Trace of Precipitation, MM = Missing Value Source: NWS Daily Summary

Daily Weather History Graph

Daily Weather History Graph

Search for Another Location

Airport or City:

Astronomy

Jul. 24, 2019 Rise Set
Actual Time 6:39 AM EDT 8:20 PM EDT
Civil Twilight 6:13 AM EDT 8:46 PM EDT
Nautical Twilight 5:42 AM EDT 9:17 PM EDT
Astronomical Twilight 5:09 AM EDT 9:50 PM EDT
Moon 12:36 AM EDT (7/24) 1:17 PM EDT (7/24)
Length of Visible Light 14h 32m
Length of Day
13h 40m
Waning Gibbous, 54% of the Moon is Illuminated
Jul 24
Waning Gibbous
Jul 24
Last Quarter
Jul 31
New
Aug 7
First Quarter
Aug 15
Full

Hourly Weather History & Observations

Time (EDT) Temp. Heat Index Dew Point Humidity Pressure Visibility Wind Dir Wind Speed Gust Speed Precip Events Conditions
6:47 AM 75.2 °F - 73.4 °F 94% 29.93 in 10.0 mi WSW 4.6 mph - N/A   Mostly Cloudy
7:11 AM 75.2 °F - 73.4 °F 94% 29.94 in 10.0 mi SW 4.6 mph - N/A   Partly Cloudy
7:47 AM 77.0 °F - 75.2 °F 94% 29.95 in 10.0 mi WSW 5.8 mph - N/A   Partly Cloudy
8:47 AM 80.6 °F 86.2 °F 75.2 °F 84% 29.96 in 10.0 mi SW 8.1 mph - N/A   Partly Cloudy
9:47 AM 82.4 °F 89.5 °F 75.2 °F 79% 29.96 in 10.0 mi WSW 9.2 mph - N/A   Mostly Cloudy
10:47 AM 84.2 °F 92.3 °F 75.2 °F 74% 29.95 in 10.0 mi West 8.1 mph - N/A   Mostly Cloudy
11:47 AM 89.6 °F 98.2 °F 73.4 °F 59% 29.95 in 10.0 mi SW 9.2 mph 16.1 mph N/A   Mostly Cloudy
12:01 PM 84.2 °F 89.6 °F 71.6 °F 66% 29.96 in 1.0 mi West 27.6 mph 23.0 mph N/A Rain , Thunderstorm Thunderstorms and Rain
12:15 PM 84.2 °F 89.6 °F 71.6 °F 66% 29.97 in 7.0 mi WNW 12.7 mph - N/A   Mostly Cloudy
12:47 PM 77.0 °F - 73.4 °F 89% 29.96 in 7.0 mi WNW 6.9 mph - N/A   Mostly Cloudy
1:01 PM 77.0 °F - 73.4 °F 89% 29.98 in 1.0 mi WSW 16.1 mph - N/A Rain Rain
1:18 PM 75.2 °F - 73.4 °F 94% 29.96 in 5.0 mi WSW 9.2 mph - N/A Rain Rain
2:47 PM 77.0 °F - 73.4 °F 89% 29.95 in 10.0 mi West 11.5 mph 23.0 mph N/A   Mostly Cloudy
3:47 PM 82.4 °F 88.2 °F 73.4 °F 74% 29.94 in 10.0 mi West 13.8 mph 25.3 mph N/A   Mostly Cloudy
4:47 PM 80.6 °F 84.6 °F 71.6 °F 74% 29.97 in 10.0 mi West 11.5 mph - N/A   Mostly Cloudy
5:47 PM 80.6 °F 84.6 °F 71.6 °F 74% 29.97 in 10.0 mi West 11.5 mph - N/A   Mostly Cloudy
6:47 PM 77.0 °F - 71.6 °F 83% 29.96 in 10.0 mi West 13.8 mph 26.5 mph N/A   Mostly Cloudy
7:47 PM 77.0 °F - 71.6 °F 83% 29.98 in 10.0 mi West 8.1 mph - N/A   Mostly Cloudy
8:47 PM 75.2 °F - 71.6 °F 89% 29.95 in 10.0 mi WSW 5.8 mph - N/A   Mostly Cloudy
9:47 PM 75.2 °F - 71.6 °F 89% 29.94 in 10.0 mi WSW 6.9 mph - N/A   Mostly Cloudy